DW8534 Weather Reports


Display with metric or nautical units.
time (UTC)temp
F
wind
direction
speed
MPH
gust
MPH
rain 1hr
in
rain 24hr
in
rain mn
in
humidity
%
barometer
mb
20260901191543 97 103 3.0 0.0 0.00 0.00 0.00 42 1010.7
20260901190050 97 180 4.0 0.0 0.00 0.00 0.00 41 1010.7
20260901184537 96 57 5.0 0.0 0.00 0.00 0.00 43 1010.9
20260901183042 96 61 3.0 0.0 0.00 0.00 0.00 45 1011.3
20260901181544 94 182 3.0 0.0 0.00 0.00 0.00 47 1011.7
20260901180035 96 117 5.0 0.0 0.00 0.00 0.00 46 1011.9
20260901174532 94 78 2.0 0.0 0.00 0.00 0.00 47 1012.2
20260901173031 92 182 2.0 0.0 0.00 0.00 0.00 50 1012.4
20260901171532 94 78 4.0 0.0 0.00 0.00 0.00 49 1012.5
20260901170028 93 94 4.0 0.0 0.00 0.00 0.00 50 1012.5
20260901164526 91 215 2.0 0.0 0.00 0.00 0.00 53 1012.8
20260901163026 92 99 3.0 0.0 0.00 0.00 0.00 53 1012.8
20260901161524 91 182 3.0 0.0 0.00 0.00 0.00 53 1013.0
20260901160024 91 205 5.0 0.0 0.00 0.00 0.00 53 1012.9
20260901154520 90 194 2.0 0.0 0.00 0.00 0.00 55 1012.9
20260901153032 90 238 4.0 0.0 0.00 0.00 0.00 55 1012.9
20260901151616 89 195 5.0 0.0 0.00 0.00 0.00 56 1012.8
20260901150014 88 196 4.0 0.0 0.00 0.00 0.00 59 1012.9
20260901144515 87 186 3.0 0.0 0.00 0.00 0.00 62 1013.1
20260901143008 86 214 3.0 0.0 0.00 0.00 0.00 65 1013.0
20260901141504 84 211 2.0 0.0 0.00 0.00 0.00 71 1013.0
20260901140004 83 132 2.0 0.0 0.00 0.00 0.00 73 1013.1
20260901134502 81 127 2.0 0.0 0.00 0.00 0.00 74 1013.2
20260901133003 80 113 2.0 0.0 0.00 0.00 0.00 76 1012.9
20260901131608 79 108 2.0 0.0 0.00 0.00 0.00 77 1012.9
20260901130059 78 105 1.0 0.0 0.00 0.00 0.00 78 1012.9
20260901124559 77 105 0.0 0.0 0.00 0.00 0.00 78 1012.7
20260901123058 77 105 2.0 0.0 0.00 0.00 0.00 77 1012.4
20260901121610 77 105 1.0 0.0 0.00 0.00 0.00 78 1012.3
20260901120105 77 105 1.0 0.0 0.00 0.00 0.00 77 1012.1
20260901114601 77 105 0.0 0.0 0.00 0.00 0.00 76 1012.1
20260901113056 77 105 1.0 0.0 0.00 0.00 0.00 76 1011.8
20260901111556 77 105 1.0 0.0 0.00 0.00 0.00 76 1011.8
20260901110052 77 105 1.0 0.0 0.00 0.00 0.00 75 1011.8
20260901104552 77 105 1.0 0.0 0.00 0.00 0.00 76 1011.8
20260901103101 77 105 1.0 0.0 0.00 0.00 0.00 76 1011.8
20260901101552 78 106 3.0 0.0 0.00 0.00 0.00 75 1011.8
20260901100044 80 171 1.0 0.0 0.00 0.00 0.00 73 1011.6
20260901094544 80 171 0.0 0.0 0.00 0.00 0.00 73 1011.7
20260901093109 80 171 0.0 0.0 0.00 0.00 0.00 72 1011.8
20260901091557 80 171 0.0 0.0 0.00 0.00 0.00 71 1011.8
20260901090040 81 171 1.0 0.0 0.00 0.00 0.00 70 1011.8
20260901084539 81 171 1.0 0.0 0.00 0.00 0.00 69 1011.7
20260901083044 82 171 2.0 0.0 0.00 0.00 0.00 68 1011.7
20260901081537 81 167 2.0 0.0 0.00 0.00 0.00 68 1011.5
20260901080042 81 107 1.0 0.0 0.00 0.00 0.00 65 1011.6
20260901074535 81 105 1.0 0.0 0.00 0.00 0.00 63 1011.7
20260901073035 81 105 1.0 0.0 0.00 0.00 0.00 62 1011.5
20260901071534 81 105 1.0 0.0 0.00 0.00 0.00 61 1011.5
20260901070035 81 105 1.0 0.0 0.00 0.00 0.00 61 1011.4
20260901064537 81 105 2.0 0.0 0.00 0.00 0.00 60 1011.3
20260901063027 82 110 2.0 0.0 0.00 0.00 0.00 58 1011.2
20260901061525 83 111 2.0 0.0 0.00 0.00 0.00 57 1011.0
20260901060024 83 111 2.0 0.0 0.00 0.00 0.00 56 1010.8
20260901054523 83 105 2.0 0.0 0.00 0.00 0.00 55 1010.7
20260901053024 84 108 3.0 0.0 0.00 0.00 0.00 55 1010.6
20260901051519 84 107 3.0 0.0 0.00 0.00 0.00 54 1010.4
20260901050017 84 106 1.0 0.0 0.00 0.00 0.00 52 1010.4
20260901044516 85 107 2.0 0.0 0.00 0.00 0.00 49 1010.3
20260901043016 85 107 2.0 0.0 0.00 0.00 0.00 49 1010.2
20260901041515 85 107 1.0 0.0 0.00 0.00 0.00 49 1010.2
20260901040016 86 107 0.0 0.0 0.00 0.00 0.00 47 1010.3
20260901034514 87 107 1.0 0.0 0.00 0.00 0.00 46 1010.3
20260901033028 87 107 0.0 0.0 0.00 0.00 0.00 46 1010.2
20260901031514 87 107 1.0 0.0 0.00 0.00 0.00 45 1010.2
20260901030015 87 107 0.0 0.0 0.00 0.00 0.00 44 1010.2
20260901024514 88 107 1.0 0.0 0.00 0.00 0.00 42 1010.0
20260901023012 89 107 2.0 0.0 0.00 0.00 0.00 41 1009.7
20260901021517 90 107 1.0 0.0 0.00 0.00 0.00 39 1009.7
20260901020011 90 107 2.0 0.0 0.00 0.00 0.00 37 1009.4
20260901014511 91 107 2.0 0.0 0.00 0.00 0.00 36 1009.2
20260901013011 91 107 1.0 0.0 0.00 0.00 0.00 36 1009.2
20260901011510 92 107 2.0 0.0 0.00 0.00 0.00 35 1009.1
20260901010009 92 107 1.0 0.0 0.00 0.00 0.00 36 1009.1
20260901004509 93 107 1.0 0.0 0.00 0.00 0.00 35 1009.1
20260901003012 94 107 2.0 0.0 0.00 0.00 0.00 34 1009.1
20260901001514 95 107 3.0 0.0 0.00 0.00 0.00 33 1009.1
20260901000007 96 124 4.0 0.0 0.00 0.00 0.00 33 1009.0
20260831234522 97 111 3.0 0.0 0.00 0.00 0.00 33 1009.1
20260831233007 97 106 4.0 0.0 0.00 0.00 0.00 32 1009.1
20260831231505 97 102 3.0 0.0 0.00 0.00 0.00 34 1009.0
20260831230005 98 125 5.0 0.0 0.00 0.00 0.00 34 1009.1
20260831224504 98 120 4.0 0.0 0.00 0.00 0.00 34 1009.1
20260831223004 98 119 5.0 0.0 0.00 0.00 0.00 33 1009.3
20260831221509 98 129 4.0 0.0 0.00 0.00 0.00 33 1009.3
20260831220005 97 128 4.0 0.0 0.00 0.00 0.00 34 1009.5
20260831214500 97 162 3.0 0.0 0.00 0.00 0.00 35 1009.6
20260831213107 96 127 5.0 0.0 0.00 0.00 0.00 36 1009.7
20260831213004 97 128 5.0 0.0 0.00 0.00 0.00 35 1009.7
20260831211600 99 131 4.0 0.0 0.00 0.00 0.00 34 1009.7
20260831210059 97 129 5.0 0.0 0.00 0.00 0.00 34 1010.0
20260831204602 99 103 5.0 0.0 0.00 0.00 0.00 34 1010.2
20260831203127 98 189 4.0 0.0 0.00 0.00 0.00 34 1010.4
20260831201556 97 106 5.0 0.0 0.00 0.00 0.00 36 1010.7
20260831200057 97 132 5.0 0.0 0.00 0.00 0.00 36 1010.8
20260831194556 98 113 3.0 0.0 0.00 0.00 0.00 34 1010.9
20260831193056 98 118 5.0 0.0 0.00 0.00 0.00 35 1011.2